TimeMST,TemperatureF,Dew PointF,Humidity,Sea Level PressureIn,VisibilityMPH,Wind Direction,Wind SpeedMPH,Gust SpeedMPH,PrecipitationIn,Events,Conditions,WindDirDegrees,DateUTC
12:54 AM,10.9,3.9,73,30.25,10.0,West,9.2,-,N/A,,Clear,270,2012-12-29 07:54:00
1:54 AM,12.0,3.9,70,30.26,10.0,WSW,12.7,-,N/A,,Clear,250,2012-12-29 08:54:00
2:54 AM,12.0,3.0,67,30.27,10.0,WSW,12.7,-,N/A,,Clear,250,2012-12-29 09:54:00
3:54 AM,12.0,3.0,67,30.27,10.0,West,10.4,-,N/A,,Clear,270,2012-12-29 10:54:00
4:54 AM,9.0,1.0,70,30.30,10.0,West,10.4,-,N/A,,Clear,260,2012-12-29 11:54:00
5:54 AM,12.0,-0.0,59,30.30,10.0,WSW,13.8,-,N/A,,Clear,240,2012-12-29 12:54:00
6:54 AM,12.0,-0.0,59,30.33,10.0,WSW,13.8,-,N/A,,Clear,250,2012-12-29 13:54:00
7:54 AM,17.1,1.9,52,30.34,10.0,WSW,13.8,-,N/A,,Clear,240,2012-12-29 14:54:00
8:54 AM,24.1,5.0,44,30.32,10.0,WSW,13.8,-,N/A,,Clear,250,2012-12-29 15:54:00
9:54 AM,30.0,6.1,36,30.30,10.0,SSW,6.9,-,N/A,,Clear,210,2012-12-29 16:54:00
10:54 AM,30.9,6.1,35,30.28,10.0,South,4.6,-,N/A,,Clear,170,2012-12-29 17:54:00
11:54 AM,35.1,1.0,24,30.23,10.0,SSE,4.6,-,N/A,,Clear,160,2012-12-29 18:54:00
12:54 PM,37.9,5.0,25,30.17,10.0,Calm,Calm,-,N/A,,Clear,0,2012-12-29 19:54:00
1:54 PM,42.1,8.1,25,30.12,10.0,East,5.8,-,N/A,,Clear,80,2012-12-29 20:54:00
2:54 PM,45.0,-4.0,13,30.08,10.0,South,17.3,23.0,N/A,,Clear,170,2012-12-29 21:54:00
4:54 PM,33.1,9.0,37,30.12,10.0,Calm,Calm,-,N/A,,Clear,0,2012-12-29 23:54:00
5:54 PM,32.0,9.0,38,30.11,10.0,West,10.4,-,N/A,,Clear,270,2012-12-30 00:54:00
6:54 PM,32.0,8.1,37,30.10,10.0,West,15.0,-,N/A,,Clear,260,2012-12-30 01:54:00
7:54 PM,30.0,8.1,40,30.08,10.0,West,13.8,-,N/A,,Clear,260,2012-12-30 02:54:00
8:54 PM,28.9,8.1,41,30.03,10.0,WNW,9.2,-,N/A,,Clear,290,2012-12-30 03:54:00
9:54 PM,27.0,8.1,45,29.99,10.0,NNW,5.8,-,N/A,,Clear,330,2012-12-30 04:54:00
10:54 PM,28.0,8.1,43,29.98,10.0,WNW,11.5,-,N/A,,Clear,300,2012-12-30 05:54:00
11:54 PM,28.0,7.0,41,29.93,10.0,West,13.8,-,N/A,,Clear,270,2012-12-30 06:54:00